Regional Weather Roundup
Issued by NWS Sioux Falls, SD

Home | Current Version | Previous Version | Text Only | Print | Product List | Glossary Off
Versions: 1 2 3 4 5 6 7 8 9 10 11 12 13 14 15 16 17 18 19 20 21 22 23 24 25 26 27 28 29 30 31 32 33 34 35 36 37 38 39 40 41 42 43 44 45 46 47 48 49 50

000
ASUS43 KFSD 262010
RWRFSD

WEATHER ROUNDUP FOR SE SOUTH DAKOTA/SW MINNESOTA/NW IOWA
NATIONAL WEATHER SERVICE SIOUX FALLS SD
300 PM CDT SUN MAR 26 2017

NOTE: "FAIR" INDICATES FEW OR NO CLOUDS BELOW 12,000 FEET WITH NO
SIGNIFICANT WEATHER AND OR OBSTRUCTIONS TO VISIBILITY.


SDZ038>040-050-052>070-262100-
SOUTHEAST SOUTH DAKOTA

CITY           SKY/WX    TMP DP  RH WIND       PRES   REMARKS
BROOKINGS      CLOUDY    40  36  86 NW3       29.93S
CHAMBERLAIN    CLOUDY    47  40  78 CALM      29.93F
HURON          CLOUDY    45  37  73 W3        29.95S
MADISON        CLOUDY    41  41 100 NE3       29.93F
MITCHELL       CLOUDY    47  38  71 NE5       29.94F
SIOUX FALLS    CLOUDY    45  38  76 N5        29.93F
WINNER         CLOUDY    48  40  73 E6        29.91F
YANKTON        CLOUDY    45  37  76 N6        29.92F
$$

MNZ071-072-080-081-089-090-097-098-262100-
SOUTHWEST MINNESOTA

CITY           SKY/WX    TMP DP  RH WIND       PRES   REMARKS
FAIRMONT       CLOUDY    41  38  89 N12       29.90S
JACKSON        CLOUDY    41  36  81 N6        29.90S
LUVERNE        CLOUDY    43  34  70 N5        29.93S
MARSHALL       CLOUDY    41  37  86 N8        29.93F
MONTEVIDEO     CLOUDY    45  37  76 NE6       29.95S
PIPESTONE      CLOUDY    43  34  70 NE6       29.92S
REDWOOD FALLS  CLOUDY    44  35  70 N8        29.91F
TRACY          CLOUDY    42  38  84 N9        29.92S
WINDOM         CLOUDY    41  37  87 NW9       29.91R
WORTHINGTON    CLOUDY    41  37  86 N9        29.92R
$$

IAZ001>003-012>014-020>022-031-032-NEZ013-014-SDZ071-262100-
NORTHWEST IOWA

CITY           SKY/WX    TMP DP  RH WIND       PRES   REMARKS
CHEROKEE       CLOUDY    45  41  86 NW5       29.91S
ESTHERVILLE    CLOUDY    41  39  93 N9        29.89S
LE MARS        CLOUDY    46  39  76 NW8       29.93F
ORANGE CITY    CLOUDY    45  39  81 NW7       29.92S
SHELDON        CLOUDY    45  45 100 NW7       29.90F
SIOUX CITY     CLOUDY    46  40  79 NW8       29.92F
SPENCER        CLOUDY    45  39  79 N8        29.91R
STORM LAKE       N/A     43  39  87 NW8       29.90F
$$

ABBREVIATIONS USED IN REMARKS
   TC - TEMPERATURE IN CELSIUS
  WCI - WIND CHILL INDEX
   HX - HEAT INDEX
  VSB - VISIBILITY





USA.gov is the U.S. government's official web portal to all federal, state and local government web resources and services.